44P/Reinmuth 2 (2008)

Japanese version
Home page
Updated on May 5, 2012

---------------------------------------------------------------------

* Profile

* Pictures

* Orbital Elements

Epoch 2008 Feb. 24.0 TT = JDT 2454520.5
T 2008 Feb. 18.25513 TT                                 MPC
q   2.1063811            (2000.0)            P               Q
n   0.13936148     Peri.   58.06734     +0.96009667     +0.26171533
a   3.6844631      Node   286.60108     -0.27849580     +0.86245060
e   0.4283072      Incl.    5.90478     -0.02558287     +0.43322516
P   7.07
From 760 observations 1993 Feb. 26-2010 Feb. 20, mean residual 0".8.
     Nongravitational parameters A1 = +0.02, A2 = -0.0492.

* Finding Charts

* Magnitudes Graph

        m1 =  9.0 + 5 log d + 15.0 log r  [ ,0]  (             - 2008 Feb. 18)
        m1 = 10.6 + 5 log d + 10.0 log r  [0, ]  (2008 Feb. 18 -             )

---------------------------------------------------------------------

The orbital elements are published on M.P.E.C. 2012-J16.
The charts are made with StellaNavigator Ver.2.0 for Windows (AstroArts / ASCII).
The magnitudes graphs are made with Comet for Windows.

---------------------------------------------------------------------

Copyright(C) Seiichi Yoshida (comet@aerith.net). All rights reserved.